Location: Pic du Midi - T1M
(42.9366°N, 0.1426°E)
Time: 02:47:31
(UTC+01:00)

X-37B - Visible Passes

Search period start: 03 October 2022 00:00
Search period end: 13 October 2022 00:00
Orbit: 329 x 342 km, 45.0° (Epoch: 29 September)

Date Brightness Start Highest point End Pass type
(mag) Time Alt. Az. Time Alt. Az. Time Alt. Az.
03 Oct 1.2 05:09:46 49° ENE 05:09:46 49° ENE 05:12:05 10° E visible
04 Oct 0.1 05:29:32 72° WSW 05:29:42 76° SSW 05:32:33 10° ESE visible
05 Oct 1.1 05:49:24 30° WSW 05:50:03 35° SSW 05:52:42 10° SE visible
06 Oct 2.3 06:09:23 14° WSW 06:10:16 15° SW 06:12:04 10° S visible
